Theta_e
314 321 322 322 323 330 332 336 337 338 338 340 338 340 350 349 353 357 345 351 354 341 340 342 343 341 343 344 344 343 341 339 338 334 324 320 319 321 322 326 329 331 330 327 324 323 322 322 324
314 321 319 321 325 329 333 335 337 338 338 337 338 342 352 355 347 351 345 352 355 334 339 340 341 340 342 342 343 343 342 339 339 336 327 318 320 323 324 326 329 330 327 325 324 324 323 324 325
313 320 320 323 326 328 331 334 337 337 336 336 337 342 354 349 351 350 346 354 355 334 340 338 337 338 339 340 342 343 343 340 340 338 330 319 320 325 329 330 330 329 326 326 325 324 324 328 329
321 321 319 322 327 329 329 332 334 337 336 335 336 339 351 355 351 348 348 356 353 336 337 339 336 336 334 336 341 342 343 341 341 339 331 324 319 326 332 331 330 326 327 325 325 325 328 333 334
321 320 322 325 327 329 330 331 332 337 336 335 334 337 354 353 351 345 349 354 352 350 334 337 336 333 332 335 340 342 343 342 341 340 333 327 319 323 331 330 325 323 326 325 326 327 330 332 334
320 320 323 326 327 329 330 330 331 336 336 335 334 334 354 353 349 346 348 350 351 349 337 335 335 332 331 334 337 341 342 342 341 339 332 327 321 322 327 327 323 322 324 326 326 327 329 330 333
321 323 324 326 327 329 330 330 331 333 335 335 334 334 353 352 349 347 348 348 349 351 340 335 333 332 331 332 336 339 341 341 341 337 331 326 323 320 325 324 323 323 322 324 326 326 328 331 332
321 323 325 327 327 328 330 331 331 331 334 334 333 333 350 352 350 348 348 348 348 352 341 335 333 332 330 330 333 336 338 337 335 332 329 325 324 319 323 323 322 322 322 322 323 325 326 327 327
320 322 324 326 327 328 329 331 329 328 329 331 332 334 357 355 351 349 348 348 348 350 347 335 333 332 329 328 329 332 334 334 334 333 331 327 324 320 322 323 323 323 323 323 322 323 323 323 324
322 323 322 325 327 328 328 329 330 328 327 328 331 341 353 357 354 351 348 348 348 349 347 344 340 332 332 330 327 329 330 331 331 329 326 326 325 321 320 324 323 324 324 324 322 322 322 322 322
321 322 322 324 325 327 328 329 330 329 327 326 327 333 343 350 355 353 350 348 348 348 347 345 344 339 340 342 330 329 329 328 325 323 322 324 324 328 325 336 330 325 324 324 324 322 321 321 321
321 320 321 322 323 324 325 326 327 327 327 327 326 328 337 347 349 354 351 349 349 347 349 346 344 342 342 342 338 332 332 330 325 321 321 323 325 336 338 339 340 339 332 325 327 327 334 339 338
324 322 321 321 321 322 322 323 325 325 325 325 325 327 337 342 347 347 353 351 350 349 348 347 346 344 343 344 344 339 342 339 334 328 324 322 325 335 338 339 340 343 340 339 340 341 339 340 340
324 325 325 323 322 321 322 322 323 323 324 324 324 324 324 325 329 340 347 352 352 350 349 348 347 347 343 346 345 344 344 345 345 344 342 333 324 335 337 339 339 337 340 340 340 341 340 341 341
323 324 326 327 326 324 322 321 322 321 322 323 323 323 322 323 323 326 335 348 354 352 350 349 348 348 344 347 347 346 345 347 346 347 347 346 335 334 337 339 339 337 336 337 337 338 339 339 339
323 324 326 326 326 326 324 323 322 321 321 322 322 322 322 322 322 322 326 337 351 354 352 351 349 349 348 346 352 349 348 348 349 348 349 349 348 341 346 342 344 344 344 343 342 342 340 340 342
323 325 325 325 326 327 324 324 324 322 321 321 321 321 321 321 321 321 323 328 350 357 351 353 352 352 352 346 349 351 350 351 350 351 350 350 350 349 348 349 347 348 348 348 347 347 346 346 346
323 324 324 325 326 325 326 327 325 323 322 323 322 321 321 321 321 321 322 326 352 358 355 353 354 354 354 351 348 349 351 350 351 351 352 352 351 351 349 348 351 348 347 347 347 346 346 345 343
322 323 323 324 325 326 327 327 327 325 323 323 323 323 321 321 321 321 321 326 332 358 358 356 356 355 355 356 353 354 350 353 352 353 352 352 353 352 352 352 348 348 350 348 344 345 345 345 344
320 321 322 323 324 325 327 327 328 328 325 323 323 323 322 322 321 321 321 324 327 338 356 359 357 356 356 356 357 355 357 355 355 355 353 354 354 353 352 351 350 350 350 348 344 345 346 344 342
318 320 321 321 322 324 326 329 328 326 327 325 323 323 322 321 322 322 323 322 326 328 342 354 360 357 357 358 356 353 353 356 355 354 353 353 352 352 352 352 350 348 347 348 347 345 343 342 341
320 319 319 320 322 324 324 328 330 327 326 327 326 323 323 321 321 323 323 324 325 328 332 341 354 355 353 356 350 352 352 353 354 356 355 353 353 352 350 350 347 346 344 348 343 344 343 342 341
322 321 319 319 320 322 323 326 327 327 326 326 327 326 325 323 322 322 324 323 326 329 325 324 330 342 340 341 352 351 352 352 352 356 354 356 353 351 350 349 347 344 344 344 345 345 345 343 342
321 322 323 320 320 322 322 325 326 327 327 327 326 326 325 324 323 322 324 323 324 328 326 324 322 321 337 335 344 350 347 345 344 343 342 345 347 348 349 347 346 345 345 342 343 343 342 340 341
319 322 328 323 322 323 321 323 324 326 326 326 326 326 325 325 324 324 323 324 324 324 327 325 323 323 330 344 341 348 347 350 352 348 344 347 348 348 345 345 345 344 343 342 342 342 342 341 340
320 321 327 326 324 322 322 323 323 324 324 325 324 325 326 325 324 324 324 325 323 324 325 326 324 325 327 347 349 350 343 352 349 345 347 347 346 344 344 344 343 342 342 343 341 340 339 340 338
321 321 321 326 321 321 321 323 323 324 324 324 324 325 326 326 325 325 324 325 324 323 325 329 327 330 347 350 351 347 344 346 348 349 346 346 345 344 344 343 341 342 341 340 338 338 337 335 335
320 322 325 325 325 328 326 327 324 324 325 325 326 326 326 326 326 326 325 325 325 323 327 332 344 347 351 350 349 350 346 349 349 346 345 344 343 341 340 339 336 335 334 332 332 332 331 331 330
321 323 322 324 324 324 327 328 331 331 327 327 326 325 325 328 339 338 327 327 325 328 337 348 346 349 346 345 345 345 345 346 346 345 341 338 336 335 332 330 330 329 325 324 327 326 328 327 327
321 323 324 327 326 324 327 329 329 332 330 328 329 329 333 343 345 346 337 336 340 346 347 346 346 345 343 343 343 343 342 343 340 336 334 332 331 329 327 325 324 322 322 321 319 320 321 321 321
Wind_Speed
6 7 11 13 7 8 16 19 23 8 2 6 4 7 27 8 2 7 21 20 24 25 29 27 26 24 22 20 18 17 15 13 12 12 13 13 14 15 15 13 11 10 9 9 10 11 12 12 12
7 2 10 11 9 13 15 21 24 10 17 8 3 6 21 13 18 16 19 22 24 27 28 27 26 24 22 20 19 18 15 13 11 11 11 13 14 14 13 12 10 8 8 8 9 10 11 11 11
4 1 11 6 13 16 18 21 16 8 12 3 5 3 17 3 11 17 23 25 23 28 29 27 26 24 22 20 20 19 17 14 12 11 10 11 14 13 12 11 9 7 7 8 9 10 12 12 11
6 7 13 11 20 21 25 25 22 3 14 8 6 2 11 11 19 18 27 26 24 27 27 28 26 24 22 21 21 20 19 16 13 10 9 10 13 13 11 10 8 7 7 7 8 11 12 12 10
12 12 12 16 23 24 24 27 30 9 8 10 10 9 16 15 19 25 27 24 25 25 24 28 25 23 22 21 21 21 20 16 14 10 8 9 12 13 10 9 8 7 7 7 8 10 11 10 8
14 11 13 17 24 24 23 34 32 8 10 11 9 13 17 19 22 24 25 23 24 26 25 27 25 22 21 21 21 21 20 17 14 11 9 9 12 13 11 9 8 8 7 7 7 8 9 7 7
18 14 19 23 23 24 24 30 22 11 11 20 13 14 18 18 22 23 24 24 23 24 23 29 26 24 21 21 20 21 20 17 15 13 11 10 12 14 12 10 9 8 8 7 7 8 8 8 8
25 14 25 23 21 26 28 30 33 13 13 20 5 7 16 27 23 23 22 24 24 20 22 30 28 25 23 22 21 20 19 17 16 13 12 11 13 15 13 11 10 9 8 8 9 9 10 10 10
23 16 18 27 27 21 27 25 5 6 14 22 11 10 17 21 23 23 23 24 24 22 20 29 29 27 25 23 23 22 20 19 17 16 15 15 16 17 16 13 12 10 9 9 10 11 11 11 13
21 17 29 24 24 25 30 30 29 14 17 19 15 14 14 16 21 25 26 27 26 25 22 25 25 27 25 23 24 24 23 22 21 20 19 17 17 17 17 15 13 12 12 11 12 12 13 14 13
29 26 24 27 33 36 29 29 32 12 14 18 23 21 16 16 20 25 26 27 27 25 23 25 27 26 24 21 25 25 24 23 21 20 20 19 17 13 15 12 14 15 14 14 14 14 14 14 14
28 34 34 31 35 30 24 35 24 19 18 20 24 22 21 24 21 24 27 28 28 28 25 27 28 25 26 24 22 25 22 22 21 20 20 20 18 14 12 16 13 11 12 16 14 15 10 10 13
30 28 35 36 34 34 31 29 25 25 19 16 11 10 17 13 20 22 24 27 30 31 29 29 29 28 30 27 19 22 18 18 18 19 19 20 22 20 20 14 16 16 13 9 10 9 11 16 12
29 30 32 33 35 34 27 27 21 28 26 24 22 14 16 16 16 15 23 25 33 35 35 31 32 30 34 27 24 22 21 16 14 13 15 18 22 20 20 19 20 21 15 14 14 14 12 16 17
31 30 28 28 34 30 35 26 29 28 32 33 25 26 21 24 22 22 20 25 21 36 44 36 33 32 37 32 25 22 24 22 17 17 15 13 18 21 21 19 17 18 18 19 19 19 13 15 20
24 27 26 29 27 29 26 29 27 34 31 30 28 29 27 29 23 24 23 25 29 37 35 32 36 34 33 39 27 25 24 22 21 19 21 21 19 21 21 21 19 15 15 15 18 19 21 20 17
24 23 28 25 27 29 24 32 26 33 34 33 32 32 32 30 31 32 27 26 33 30 36 41 34 33 30 38 35 28 25 22 25 20 22 23 22 19 26 23 22 19 20 20 19 18 20 20 21
23 25 27 28 23 28 27 31 24 34 30 29 29 36 35 36 33 35 32 29 26 25 28 35 32 27 27 30 34 34 27 28 23 25 22 23 25 22 19 25 20 18 24 26 24 25 23 24 23
26 25 28 27 26 28 25 30 25 25 26 20 31 37 42 37 34 32 36 32 34 25 30 32 33 32 32 29 33 29 32 27 27 25 24 23 25 22 22 20 20 24 22 22 18 19 19 23 20
26 26 29 26 26 24 24 29 25 25 26 29 26 22 22 31 35 38 38 34 35 37 29 33 36 37 36 35 30 31 26 26 25 23 23 24 25 26 24 24 20 19 22 19 19 25 24 24 21
25 26 25 26 25 28 21 24 24 20 25 28 32 32 26 28 30 38 36 42 36 38 40 37 36 38 39 35 31 24 24 22 24 22 24 26 28 29 28 27 23 22 25 26 21 20 21 22 20
24 24 26 26 23 19 22 16 21 20 18 19 28 35 32 33 34 32 37 38 43 41 41 40 30 34 34 35 32 32 30 28 26 25 23 28 33 33 27 27 24 23 26 17 17 19 18 19 22
22 19 22 25 23 23 28 14 19 20 22 22 22 28 35 39 36 32 26 30 41 39 43 38 39 37 37 36 29 31 31 32 30 26 27 24 22 23 24 23 20 22 18 18 16 17 17 17 19
22 16 28 23 18 19 24 22 17 22 20 24 23 32 33 32 35 39 34 27 32 37 37 35 38 40 40 34 34 32 33 21 18 20 17 17 19 18 18 19 15 16 17 16 15 15 16 16 18
19 10 12 13 15 17 22 24 19 22 24 21 21 33 40 36 35 37 38 35 29 38 37 36 36 35 36 34 37 31 25 18 24 16 13 13 13 13 12 13 10 9 11 12 14 15 16 16 18
23 20 11 12 15 20 25 25 22 27 26 30 17 34 36 38 37 37 37 38 38 37 38 40 38 33 35 36 34 34 25 24 20 13 12 12 11 11 14 14 12 13 14 13 13 11 12 14 15
26 8 11 15 22 15 15 27 27 23 28 28 14 9 29 30 35 36 35 36 36 34 34 42 38 32 32 32 28 25 28 20 22 20 21 18 17 16 15 13 15 14 14 14 13 12 11 14 16
20 5 14 13 20 9 13 20 19 25 27 25 19 10 11 19 20 23 36 33 37 38 36 36 38 37 34 32 28 28 29 30 27 25 24 19 14 9 9 12 10 7 4 3 3 5 8 10 11
17 10 3 6 17 16 9 8 12 22 17 22 17 19 16 14 8 7 22 26 36 35 36 42 38 36 32 32 33 32 33 29 25 19 17 14 12 9 5 10 8 5 3 3 3 5 4 7 8
11 20 19 5 13 17 6 4 19 21 9 15 10 19 18 18 14 13 14 32 40 41 37 36 36 35 33 36 35 32 29 26 23 21 18 17 16 14 13 9 6 3 5 9 7 7 7 7 9
Wind_Direction
263 326 325 285 251 231 254 255 258 266 266 98 7 293 77 92 13 70 133 142 160 158 158 158 158 158 159 163 165 163 157 145 131 121 120 128 131 131 135 136 134 133 126 125 123 123 124 127 126
260 228 256 269 244 253 248 242 260 255 88 72 305 225 90 102 123 128 124 144 163 153 158 160 161 160 163 166 171 170 164 156 143 128 124 134 138 138 138 142 140 137 133 129 128 129 129 131 130
251 198 265 228 239 243 258 251 236 159 113 108 292 327 87 252 119 140 139 147 165 153 161 161 162 163 165 169 175 175 172 165 157 141 132 140 148 146 144 147 145 144 136 134 135 135 136 135 131
263 245 247 258 251 240 247 271 289 157 136 141 264 251 91 133 138 139 143 152 147 153 165 163 164 165 167 170 177 178 177 174 167 155 143 149 159 158 153 153 153 151 142 139 142 144 144 140 136
244 256 238 245 243 253 265 251 264 280 133 160 212 253 106 106 123 137 147 149 144 148 163 165 166 166 168 171 177 180 180 178 176 168 161 162 169 170 167 165 165 165 156 149 152 154 155 154 154
229 227 246 242 247 253 250 267 277 195 264 251 158 259 114 130 133 147 150 146 150 157 160 164 166 168 169 169 176 180 182 182 183 183 178 176 180 181 181 181 180 179 174 165 166 174 181 185 188
239 235 239 246 256 261 244 246 260 234 219 261 185 237 135 145 143 149 150 148 151 171 170 166 168 169 170 170 173 182 184 186 191 194 192 190 189 191 190 191 193 192 191 191 192 197 208 219 224
233 249 253 246 250 257 264 263 236 197 229 247 352 193 165 148 150 152 152 153 154 163 172 170 170 171 172 172 175 180 186 190 196 202 202 202 199 199 200 201 202 204 205 210 215 219 225 232 240
233 242 244 242 248 252 261 270 167 190 234 254 178 173 97 134 152 158 159 161 161 165 178 174 174 173 175 176 177 181 189 195 201 206 209 207 205 203 205 209 211 215 219 224 230 234 237 241 247
228 238 237 244 250 250 262 270 275 192 216 238 212 156 138 161 171 172 169 169 168 170 170 178 177 178 174 182 181 185 190 196 202 207 209 207 210 209 212 215 224 226 228 234 240 244 247 250 256
229 239 247 246 249 261 266 266 276 233 204 233 247 195 172 183 190 187 181 180 176 176 174 184 180 184 172 182 183 189 194 199 203 207 208 207 205 211 214 226 234 238 240 245 250 256 262 266 267
240 236 243 254 264 268 258 261 271 257 238 222 236 218 199 198 194 199 191 186 179 179 179 189 189 188 173 192 194 193 198 202 204 207 208 204 199 196 227 209 243 266 258 254 267 270 281 300 304
238 243 242 241 252 258 269 269 256 259 237 240 271 184 161 186 202 208 209 198 186 181 183 189 192 197 171 195 205 193 197 206 208 208 211 205 199 191 211 220 222 257 269 296 268 289 268 275 289
253 252 257 250 246 247 255 260 258 241 253 231 237 212 192 211 220 226 218 221 192 184 186 190 193 199 176 189 208 189 192 209 205 218 229 216 203 194 216 221 219 215 232 255 270 264 260 254 264
253 254 262 248 241 246 247 251 249 236 241 249 238 242 233 209 223 222 232 224 226 193 192 182 196 199 187 184 201 195 197 202 204 215 234 230 219 201 220 227 233 222 227 224 236 234 238 241 248
261 252 245 241 250 243 241 246 240 239 234 240 240 241 239 234 227 234 220 225 226 195 164 187 195 205 199 187 185 199 195 195 208 205 223 239 236 212 221 219 227 236 230 238 246 249 251 258 265
246 249 239 251 246 238 217 245 243 240 234 233 236 233 236 238 237 237 234 222 215 207 182 188 187 206 207 200 193 194 192 207 196 214 211 236 244 237 212 224 222 219 233 226 225 228 235 241 245
237 242 242 254 244 231 240 237 234 239 241 252 232 232 233 229 229 224 228 214 210 204 196 191 188 198 215 203 202 203 201 206 207 202 218 224 239 245 242 221 217 232 243 240 242 242 241 253 267
256 253 253 251 231 240 241 237 232 218 221 233 231 239 219 226 227 227 219 211 211 202 195 195 190 193 209 206 202 203 204 208 208 209 214 222 237 242 238 239 227 230 243 251 249 258 257 257 260
237 249 263 268 271 271 239 243 237 219 208 222 238 244 221 213 223 234 213 211 201 208 207 189 198 199 202 211 208 199 209 209 213 216 212 222 228 236 233 237 241 240 245 250 246 241 250 260 265
251 248 247 250 259 268 265 262 242 241 210 214 210 237 222 219 234 223 221 207 201 200 205 198 201 200 203 207 210 203 207 211 217 218 221 225 233 239 240 246 243 233 240 232 239 251 258 262 259
240 250 256 253 258 251 249 258 248 228 245 238 213 212 213 211 229 231 221 207 199 198 197 201 190 199 207 207 207 198 202 206 201 207 207 221 229 236 247 255 250 238 253 250 247 250 255 256 261
289 267 241 262 245 257 256 253 249 222 225 234 241 226 218 206 216 236 229 207 194 194 198 200 207 209 215 208 199 205 207 205 209 204 213 218 224 240 252 247 242 239 246 250 252 255 256 262 267
277 288 300 233 249 244 245 249 231 254 229 220 219 224 225 214 209 221 234 219 198 193 196 199 208 209 212 213 198 206 214 210 211 207 210 215 221 223 228 233 240 240 243 254 249 257 263 271 266
242 238 244 232 226 241 234 244 243 238 247 245 245 212 211 210 215 209 219 224 210 199 196 202 217 217 210 210 202 204 208 185 193 204 199 204 205 220 218 218 229 244 251 255 255 263 268 277 272
269 246 243 211 225 237 222 236 230 232 253 249 276 223 197 201 207 207 213 210 214 205 201 202 206 209 203 201 198 200 191 183 188 164 160 177 192 201 202 208 213 233 238 242 252 255 257 263 272
233 206 249 271 240 238 239 225 231 231 221 239 243 286 186 196 203 200 208 203 201 199 201 192 196 192 183 187 189 186 177 173 169 167 174 171 174 174 185 210 234 231 241 249 263 280 288 285 289
251 304 208 222 251 198 261 252 223 215 212 219 211 211 201 189 195 201 201 202 194 199 187 175 170 167 171 175 166 164 167 172 171 175 178 180 183 197 215 230 241 248 260 291 332 328 323 311 305
242 211 150 295 252 232 242 267 336 317 194 195 184 181 199 167 106 241 232 204 192 161 160 156 163 165 177 173 175 167 169 172 169 172 163 154 140 126 114 94 82 68 11 5 358 23 341 308 324
308 218 207 184 247 248 196 256 292 324 48 162 149 161 148 120 94 59 144 130 123 129 142 151 151 159 169 173 164 161 158 156 159 151 148 147 144 139 130 121 102 57 358 339 329 308 300 302 309